TOURFACTS.DK  
Stats and Facts from Tour de France.

Tour de France 2018 starts in 349 days
  Riders   Stages   Teams   Summits   Yearly  


 
Search by year

 2017 - St. 18:  14824 starters.
  5131 different riders.
  634 teams.
  2229 stages.
  454 restdays.
  439241.60 km.
  5651 abandonnees.


Top 3
Christopher Froome89:04:48
Romain Bardet89:08:53
Nairo Quintana89:09:09
Rafal Majka209 pt.
Thomas De Gendt130 pt.
Jarlinson Pantano ..121 pt.
Peter Sagan470 pt.
Marcel Kittel228 pt.
Michael Matthews199 pt.
Adam Yates89:09:30
Louis Meintjes89:11:46
Emanuel Buchmann89:52:28
Facts from Tour de France 2016
  |   Stages.  |   Stage winners.  |   Days in yellow  |   Average speed.  |   Route.  |   Teams.  |   All riders.  |   Rookies.  |   Withdrawls.  |  

  |   GC.  |   Polka  |   Green  |   White  |   Summits. (In tour)  |   Summits. (Points)  |   Miscellaneous.  |  

Stage 5 on 06 - 07 - 2016
         Owning:    Greg Van Avermaet      Greg Van Avermaet      Peter Sagan      Julian Alaphilippe  

Pick a stage:  1 2 3 4 5 6 7 8 9 10 11 12 13 14 15 16 17 18 19 20 21
  LimogesLe Lioran | Dist: 216.00 km.
Cat: 4Côte de Saint-Léonard-de-NoblatBELJasper Stuyven1 points 
Cat: 3Côte du Puy Saint-MaryBELThomas De Gendt2 points 
Cat: 3Col de NeronneBELThomas De Gendt2 points 
Cat: 2Col du Pas de Peyrol/Puy MarieBELThomas De Gendt5 points 
Cat: 2Col du PerthusPOLRafal Majka1 points 
Cat: 3Col de Font de CèreBELGreg Van Avermaet2 points 

Average speed for all riders in stage:  36,959 km./hr.
    Place:Name:Team:Time:Km/h:
BELGreg Van AvermaetUSABMC Racing Team05:31:36  +  00:00:00=39,083 
BELThomas De GendtBELLotto Soudal05:34:10  +  00:02:34=38,783 
POLRafal MajkaRUSTinkoff05:36:40  +  00:05:04=38,495 
4 ESPJoaquim RodriguezRUSTeam Katusha05:36:40  +  00:05:04=38,495 
5 ENGDaniel MartinBELEtixx - Quick Step05:36:43  +  00:05:07=38,489 
6 POLBartosz HuzarskiDEUBora-Argon 1805:36:43  +  00:05:07=38,489 
7 FRAJulian AlaphilippeBELEtixx - Quick Step05:36:43  +  00:05:07=38,489 
8 ENGAdam YatesAUSORICA BikeExchange05:36:43  +  00:05:07=38,489 
9 KENChristopher FroomeGBRSky Procycling05:36:43  +  00:05:07=38,489 
10 USATejay Van GarderenUSABMC Racing Team05:36:43  +  00:05:07=38,489 
11 FRAPierre RollandUSATeam Cannondale Drapac05:36:43  +  00:05:07=38,489 
12 AUSRichie PorteUSABMC Racing Team05:36:43  +  00:05:07=38,489 
13 FRARomain BardetFRAAg2r La Mondiale05:36:43  +  00:05:07=38,489 
14 SUISébastien ReichenbachFRAFDJ05:36:43  +  00:05:07=38,489 
15 COLNairo QuintanaESPMovistar Team05:36:43  +  00:05:07=38,489 
16 NEDWilco KeldermanNLDTeam Lotto NL - Jumbo05:36:43  +  00:05:07=38,489 
17 NEDBauke MollemaUSATrek – Segafredo05:36:43  +  00:05:07=38,489 
18 ITAFabio AruKAZAstana Pro Team05:36:43  +  00:05:07=38,489 
19 COLSergio Luis HenaoGBRSky Procycling05:36:43  +  00:05:07=38,489 
20 FRAWarren BarguilDEUTeam Giant Alpecin05:36:43  +  00:05:07=38,489 
21 FRAThibaut PinotFRAFDJ05:36:43  +  00:05:07=38,489 
22 ESPAlejandro ValverdeESPMovistar Team05:36:43  +  00:05:07=38,489 
23 RSALouis MeintjesITALampre-Merida05:36:43  +  00:05:07=38,489 
24 BELJurgen Van Den BroeckRUSTeam Katusha05:36:52  +  00:05:16=38,472 
25 CZERoman KreuzigerRUSTinkoff05:36:54  +  00:05:18=38,468 
26 ESPMikel NieveGBRSky Procycling05:36:57  +  00:05:21=38,463 
27 WALGeraint ThomasGBRSky Procycling05:36:59  +  00:05:23=38,459 
28 UKRAndriy GrivkoKAZAstana Pro Team05:37:02  +  00:05:26=38,453 
29 ESPDaniel MorenoESPMovistar Team05:37:12  +  00:05:36=38,434 
30 ESPAlberto ContadorRUSTinkoff05:37:16  +  00:05:40=38,427 
31 SUIMathias FrankCHEIAM Cycling05:37:24  +  00:05:48=38,411 
32 BELSerge PauwelsZAFDimension Data05:37:39  +  00:06:03=38,383 
33 FRACyril GautierFRAAg2r La Mondiale05:38:00  +  00:06:24=38,343 
34 ITADamiano CarusoUSABMC Racing Team05:38:55  +  00:07:19=38,239 
35 NEDStef ClementCHEIAM Cycling05:39:53  +  00:08:17=38,131 
36 GEREmanuel BuchmannDEUBora-Argon 1805:39:53  +  00:08:17=38,131 
37 ITADomenico PozzovivoFRAAg2r La Mondiale05:39:53  +  00:08:17=38,131 
38 FRAFabrice JeandesbozFRADirect Energie05:39:53  +  00:08:17=38,131 
39 URSTanel KangertKAZAstana Pro Team05:39:53  +  00:08:17=38,131 
40 ITADiego RosaKAZAstana Pro Team05:39:53  +  00:08:17=38,131 
41 ESPHaimar ZubeldiaUSATrek – Segafredo05:39:53  +  00:08:17=38,131 
42 ARGEduardo SepulvedaFRAFortuneo - Vital Concept05:39:53  +  00:08:17=37,058 
43 FRAAlexis VuillermozFRAAg2r La Mondiale05:41:54  +  00:10:18=37,906 
44 LUXFränk SchleckUSATrek – Segafredo05:41:54  +  00:10:18=37,906 
45 AUTPatrick KonradDEUBora-Argon 1805:41:54  +  00:10:18=37,906 
46 SUISteve MorabitoFRAFDJ05:41:54  +  00:10:18=37,906 
47 BELJan BakelantsFRAAg2r La Mondiale05:41:54  +  00:10:18=37,906 
48 NEDTom-Jelte SlagterUSATeam Cannondale Drapac05:44:11  +  00:12:35=37,654 
49 COLJarlinson Pantano GomezCHEIAM Cycling05:44:37  +  00:13:01=37,607 
50 ESPLuis León SánchezKAZAstana Pro Team05:44:37  +  00:13:01=37,607 
52 ESPLuis Angel MateFRACofidis – Solutions Crédits05:44:37  +  00:13:01=37,607 
53 DENChris Anker SørensenFRAFortuneo - Vital Concept05:44:37  +  00:13:01=37,607 
54 FRAArnold JeannessonFRACofidis – Solutions Crédits05:44:37  +  00:13:01=37,607 
55 FRAMickaël CherelFRAAg2r La Mondiale05:44:37  +  00:13:01=37,607 
51 FRAFlorian VachonFRAFortuneo - Vital Concept05:44:41  +  00:13:05=37,600 
56 FRAJérémy RoyFRAFDJ05:45:12  +  00:13:36=37,543 
57 AUTGeorg PreidlerDEUTeam Giant Alpecin05:45:21  +  00:13:45=37,527 
58 USALawson CraddockUSATeam Cannondale Drapac05:45:21  +  00:13:45=37,527 
59 USAPeter StetinaUSATrek – Segafredo05:45:21  +  00:13:45=37,527 
60 PORRui CostaITALampre-Merida05:45:21  +  00:13:45=37,527 
61 ESPAlberto LosadaRUSTeam Katusha05:45:21  +  00:13:45=37,527 
62 RUSIlnur ZakarinRUSTeam Katusha05:45:21  +  00:13:45=37,527 
63 SUIMartin ElmigerCHEIAM Cycling05:45:21  +  00:13:45=37,527 
64 LUXBen GastauerFRAAg2r La Mondiale05:45:21  +  00:13:45=37,527 
65 GERTony MartinBELEtixx - Quick Step05:45:21  +  00:13:45=37,527 
66 ESPDaniel NavarroFRACofidis – Solutions Crédits05:45:21  +  00:13:45=37,527 
67 ITAPaolo TiralongoKAZAstana Pro Team05:45:21  +  00:13:45=37,527 
68 ITAVincenzo NibaliKAZAstana Pro Team05:45:21  +  00:13:45=37,527 
69 NEDLaurens ten DamDEUTeam Giant Alpecin05:45:21  +  00:13:45=37,527 
70 FRAAmaël MoinardUSABMC Racing Team05:45:21  +  00:13:45=37,527 
71 RSADaryl ImpeyAUSORICA BikeExchange05:45:21  +  00:13:45=37,527 
72 USAAlex HowesUSATeam Cannondale Drapac05:45:21  +  00:13:45=37,527 
73 ETHTsgabu Gebremaryan GrmayITALampre-Merida05:45:21  +  00:13:45=37,527 
74 HRVRobert KiserlovskiRUSTinkoff05:45:21  +  00:13:45=37,527 
75 ESPMikel Landa MeanaGBRSky Procycling05:45:30  +  00:13:54=37,511 
76 GERSimon GeschkeDEUTeam Giant Alpecin05:45:36  +  00:14:00=37,500 
77 FRAThomas VoecklerFRADirect Energie05:46:34  +  00:14:58=37,395 
78 NEDWout PoelsGBRSky Procycling05:49:35  +  00:17:59=37,073 
79 NZLGeorge BennettNLDTeam Lotto NL - Jumbo05:49:35  +  00:17:59=37,073 
80 FRARomain SicardFRADirect Energie05:50:38  +  00:19:02=36,962 
81 FRAPierre-Luc PérichonFRAFortuneo - Vital Concept05:52:41  +  00:21:05=36,747 
82 COLWinner AnaconaESPMovistar Team05:55:21  +  00:23:45=36,471 
83 ESPJon Izaguirre InsaustiESPMovistar Team05:55:21  +  00:23:45=36,471 
84 AUSAdam HansenBELLotto Soudal05:55:21  +  00:23:45=36,471 
85 GERMarcus BurghardtUSABMC Racing Team05:55:21  +  00:23:45=36,471 
86 BELOliver NaesenCHEIAM Cycling05:55:21  +  00:23:45=36,471 
87 SUIMichael SchärUSABMC Racing Team05:55:21  +  00:23:45=36,471 
88 AUSRohan DennisUSABMC Racing Team05:55:21  +  00:23:45=36,471 
89 NEDBert-Jan LindemanNLDTeam Lotto NL - Jumbo05:55:21  +  00:23:45=36,471 
90 FRAArthur VichotFRAFDJ05:55:21  +  00:23:45=36,471 
91 FRAAnthony RouxFRAFDJ05:55:21  +  00:23:45=36,471 
92 SUIJakob FuglsangKAZAstana Pro Team05:55:21  +  00:23:45=36,471 
93 FRABrice FeilluFRAFortuneo - Vital Concept05:55:21  +  00:23:45=36,471 
94 FRANicolas EdetFRACofidis – Solutions Crédits05:55:21  +  00:23:45=36,471 
95 CZEJan BártaDEUBora-Argon 1805:55:21  +  00:23:45=36,471 
96 BLRVasil KiryienkaGBRSky Procycling05:55:21  +  00:23:45=36,471 
97 NEDRoy CurversDEUTeam Giant Alpecin05:55:21  +  00:23:45=36,471 
98 NEDTom DumoulinDEUTeam Giant Alpecin05:55:21  +  00:23:45=36,471 
99 ESPGorka Izaguirre InsaustiESPMovistar Team05:55:21  +  00:23:45=36,471 
100 GERPaul VossDEUBora-Argon 1805:55:21  +  00:23:45=36,471 
101 FRAMatthieu LadagnousFRAFDJ05:55:21  +  00:23:45=36,471 
102 HRVKristijan DurasekITALampre-Merida05:55:21  +  00:23:45=36,471 
103 SLOLuka PibernikITALampre-Merida05:55:21  +  00:23:45=36,471 
104 ESPJesus HerradaESPMovistar Team05:55:21  +  00:23:45=36,471 
105 IRLChristopher Juul JensenAUSORICA BikeExchange05:55:21  +  00:23:45=36,471 
106 KAZAlexey LutsenkoKAZAstana Pro Team05:55:21  +  00:23:45=36,471 
107 FRAJérôme CousinFRACofidis – Solutions Crédits05:55:21  +  00:23:45=36,471 
108 ESPRubén PlazaAUSORICA BikeExchange05:55:21  +  00:23:45=36,471 
109 FRASylvain ChavanelFRADirect Energie05:55:21  +  00:23:45=36,471 
110 SVKPeter SaganRUSTinkoff05:55:21  +  00:23:45=36,471 
111 NEDDylan Van BaarleUSATeam Cannondale Drapac05:56:50  +  00:25:14=36,319 
112 ERIDaniel TeklehaimanotZAFDimension Data05:56:50  +  00:25:14=36,319 
113 ESPMarkel IrizarUSATrek – Segafredo05:56:50  +  00:25:14=36,319 
114 PORNelson OliveiraESPMovistar Team05:56:50  +  00:25:14=36,319 
115 ESPAngel ViciosoRUSTeam Katusha05:56:50  +  00:25:14=36,319 
116 ESPImanol ErvitiESPMovistar Team05:56:50  +  00:25:14=36,319 
117 AUSSimon GerransAUSORICA BikeExchange05:56:50  +  00:25:14=36,319 
118 BELJulien VermoteBELEtixx - Quick Step05:56:50  +  00:25:14=36,319 
119 GERPaul MartensNLDTeam Lotto NL - Jumbo05:56:50  +  00:25:14=36,319 
120 AUSMathew HaymanAUSORICA BikeExchange05:56:50  +  00:25:14=36,319 
121 USABrent BookwalterUSABMC Racing Team05:56:50  +  00:25:14=36,319 
122 AUSLuke DurbridgeAUSORICA BikeExchange05:56:50  +  00:25:14=36,319 
123 FRACédric PineauFRAFDJ05:56:50  +  00:25:14=36,319 
124 FRAJérôme CoppelCHEIAM Cycling05:56:50  +  00:25:14=36,319 
125 FRAArmindo FonsecaFRAFortuneo - Vital Concept05:56:50  +  00:25:14=36,319 
126 DENMatti BreschelUSATeam Cannondale Drapac05:56:50  +  00:25:14=36,319 
127 SUIGregory RastUSATrek – Segafredo05:56:50  +  00:25:14=36,319 
128 SUIReto HollensteinCHEIAM Cycling05:56:50  +  00:25:14=36,319 
129 FRAAnthony DelaplaceFRAFortuneo - Vital Concept05:56:50  +  00:25:14=36,319 
130 CANAntoine DuchesneFRADirect Energie05:56:50  +  00:25:14=36,319 
131 ITAJacopo GuarnieriRUSTeam Katusha05:56:50  +  00:25:14=36,319 
132 ITAMatteo BonoITALampre-Merida05:56:50  +  00:25:14=36,319 
133 ITACesare BenedettiDEUBora-Argon 1805:56:50  +  00:25:14=36,319 
134 SUIFabian CancellaraUSATrek – Segafredo05:56:50  +  00:25:14=36,319 
135 FRATony GallopinBELLotto Soudal05:56:50  +  00:25:14=36,319 
136 FRAWilliam BonnetFRAFDJ05:56:50  +  00:25:14=36,319 
137 BELMaarten WynantsNLDTeam Lotto NL - Jumbo05:56:50  +  00:25:14=36,319 
138 FRAGeoffrey SoupeFRACofidis – Solutions Crédits05:56:50  +  00:25:14=36,319 
139 GERRobert WagnerNLDTeam Lotto NL - Jumbo05:56:50  +  00:25:14=36,319 
140 SLOKristjan KorenUSATeam Cannondale Drapac05:56:50  +  00:25:14=36,319 
141 ITAFabio SabatiniBELEtixx - Quick Step05:56:50  +  00:25:14=36,319 
142 ITAMatteo TosattoRUSTinkoff05:56:50  +  00:25:14=36,319 
143 CZEPetr VakocBELEtixx - Quick Step05:56:50  +  00:25:14=36,319 
144 RSAReinardt Janse Van RensburgZAFDimension Data05:56:50  +  00:25:14=36,319 
145 NOREdvald Boasson HagenZAFDimension Data05:56:50  +  00:25:14=36,319 
146 NORVegard BreenFRAFortuneo - Vital Concept05:56:50  +  00:25:14=36,319 
147 GERJohn DegenkolbDEUTeam Giant Alpecin05:56:50  +  00:25:14=36,319 
148 GERMarcel KittelBELEtixx - Quick Step05:56:50  +  00:25:14=36,319 
149 GERAndré GreipelBELLotto Soudal05:56:50  +  00:25:14=36,319 
150 FRASamuel DumoulinFRAAg2r La Mondiale05:56:50  +  00:25:14=36,319 
151 BELIljo KeisseBELEtixx - Quick Step05:56:50  +  00:25:14=36,319 
152 URSRamunas NavardauskasUSATeam Cannondale Drapac05:56:50  +  00:25:14=36,319 
153 FRA Alexis GougeardFRAAg2r La Mondiale05:56:50  +  00:25:14=36,319 
154 SUIMichael AlbasiniAUSORICA BikeExchange05:56:50  +  00:25:14=36,319 
155 GERAndreas SchillingerDEUBora-Argon 1805:56:50  +  00:25:14=36,319 
156 FRAAdrien PetitFRADirect Energie05:56:50  +  00:25:14=36,319 
157 NEDTimo RoosenNLDTeam Lotto NL - Jumbo05:56:50  +  00:25:14=36,319 
158 POLMaciej BodnarRUSTinkoff05:56:50  +  00:25:14=36,319 
159 ENGIan StannardGBRSky Procycling05:56:50  +  00:25:14=36,319 
160 ENGStephen CummingsZAFDimension Data05:56:50  +  00:25:14=36,319 
161 NZLGregory HendersonBELLotto Soudal05:56:50  +  00:25:14=36,319 
162 AUSMichael MatthewsAUSORICA BikeExchange05:56:50  +  00:25:14=36,319 
163 BELJürgen RoelandtsBELLotto Soudal05:56:50  +  00:25:14=36,319 
164 DENMichael ValgrenRUSTinkoff05:56:50  +  00:25:14=36,319 
165 BELJasper StuyvenUSATrek – Segafredo05:56:50  +  00:25:14=36,319 
166 BELJens DebusschereBELLotto Soudal05:56:50  +  00:25:14=36,319 
167 BELEdward TheunsUSATrek – Segafredo05:56:50  +  00:25:14=36,319 
168 BELSep VanmarckeNLDTeam Lotto NL - Jumbo05:56:50  +  00:25:14=36,319 
169 NEDSebastian LangeveldUSATeam Cannondale Drapac05:56:50  +  00:25:14=36,319 
170 BRAMaximilano RichezeBELEtixx - Quick Step05:56:50  +  00:25:14=36,319 
171 JPNYukiya ArashiroITALampre-Merida05:56:50  +  00:25:14=36,319 
172 NORSondre Holst EngerCHEIAM Cycling05:56:50  +  00:25:14=36,319 
173 WALLuke RoweGBRSky Procycling05:57:20  +  00:25:44=36,269 
174 FRAChristophe LaporteFRACofidis – Solutions Crédits05:57:35  +  00:25:59=36,243 
175 FRACyril LemoineFRACofidis – Solutions Crédits05:57:35  +  00:25:59=36,243 
176 NEDAlbert TimmerDEUTeam Giant Alpecin05:57:37  +  00:26:01=36,240 
177 ITAOscar GattoRUSTinkoff05:59:34  +  00:27:58=36,043 
178 FRABryan CoquardFRADirect Energie06:00:10  +  00:28:34=35,983 
179 AUSMark RenshawZAFDimension Data06:00:10  +  00:28:34=35,983 
180 AUTBernhard EiselZAFDimension Data06:00:10  +  00:28:34=35,983 
181 NEDRamon SinkeldamDEUTeam Giant Alpecin06:00:10  +  00:28:34=35,983 
182 IOMMark CavendishZAFDimension Data06:00:10  +  00:28:34=35,983 
183 NEDDylan GroenewegenNLDTeam Lotto NL - Jumbo06:00:10  +  00:28:34=35,983 
184 ENGDaniel McLayFRAFortuneo - Vital Concept06:00:10  +  00:28:34=35,983 
185 SLOBorut BozicFRACofidis – Solutions Crédits06:00:10  +  00:28:34=35,983 
186 SLOJan PolancITALampre-Merida06:00:10  +  00:28:34=35,983 
187 ERINatnael Teweldemedhin BerhaneZAFDimension Data06:00:10  +  00:28:34=35,983 
188 FRAYohann GèneFRADirect Energie06:00:10  +  00:28:34=35,983 
189 GERMarcel SiebergBELLotto Soudal06:00:10  +  00:28:34=35,983 
190 DENLars BakBELLotto Soudal06:00:10  +  00:28:34=35,983 
191 NORAlexander KristoffRUSTeam Katusha06:00:10  +  00:28:34=35,983 
192 ITADavide CimolaiITALampre-Merida06:00:10  +  00:28:34=35,983 
193 BELSam BennettDEUBora-Argon 1806:00:10  +  00:28:34=35,983 
194 AUSLeigh HowardCHEIAM Cycling06:00:10  +  00:28:34=35,983 
195 AUTMarco HallerRUSTeam Katusha06:00:10  +  00:28:34=35,983 
196 NZLShane ArchboldDEUBora-Argon 1806:00:10  +  00:28:34=35,983 
197 FRAAngelo TulikFRADirect Energie06:00:10  +  00:28:34=35,983 
198 DENMichael MørkøvRUSTeam Katusha06:04:50  +  00:33:14=35,523 


Todays birthdays.

1889  Arthur Godart
1901  Félix Baud
1904  Fernand Fayolle
1921  Pietro Giudici
1932  Félix Le Buhotel
1932  Piet Van Den Brekel
1954  Hennie Stamsnijder
1965  Francis Moreau
1980  Andrey Kashechkin
1981  Stefan Schumacher